Weather History for Orangeburg, SC

Change the Weather History Date:

Friday, March 22, 2013

  Actual Average Record
Temperature  
Mean Temperature 44 °F 58 °F  
Max Temperature 51 °F 71 °F 89 °F (1982)
Min Temperature 36 °F 46 °F 27 °F (1965)
Degree Days  
Heating Degree Days 21 7  
Month to date heating degree days 298 219  
Since 1 July heating degree days 1931 2151  
Cooling Degree Days 0 1  
Month to date cooling degree days 3 14  
Year to date cooling degree days 23 17  
Moisture  
Dew Point 21 °F    
Average Humidity 43    
Maximum Humidity 73    
Minimum Humidity 27    
Precipitation  
Precipitation 0.00 in 0.11 in 2.58 in (1970)
Month to date precipitation 1.10 2.84  
Year to date precipitation 9.26 10.41  
Sea Level Pressure  
Sea Level Pressure 30.06 in    
Wind  
Wind Speed 4 mph (ENE)    
Max Wind Speed 10 mph    
Max Gust Speed 13 mph    
Visibility 10 miles    
Events      
T = Trace of Precipitation, MM = Missing Value Source: NWS Daily Summary

Daily Weather History Graph

Daily Weather History Graph

Search for Another Location

Airport:

Trip Planner

Search our weather history database for the weather conditions in past years. The results will help you decide how hot, cold, wet, or windy it might be!

Date:

Astronomy

Mar. 22, 2013 Rise Set
Actual Time 7:24 AM EDT 7:36 PM EDT
Civil Twilight 6:59 AM EDT 8:01 PM EDT
Nautical Twilight 6:30 AM EDT 8:30 PM EDT
Astronomical Twilight 6:01 AM EDT 8:59 PM EDT
Moon 3:14 PM EDT (3/22) 4:11 AM EDT (3/22)
Length of Visible Light 13h 02m
Length of Day
12h 12m
Waxing Gibbous, 77% of the Moon is Illuminated
Mar 22
Waxing Gibbous
Mar 27
Full
Apr 3
Last Quarter
Apr 10
New
Apr 18
First Quarter

Hourly Weather History & Observations

Time (EDT) Temp. Windchill Dew Point Humidity Pressure Visibility Wind Dir Wind Speed Gust Speed Precip Events Conditions
12:53 AM 39.9 °F 35.1 °F 19.0 °F 43% 29.99 in 10.0 mi NNE 6.9 mph - N/A   Clear
1:53 AM 37.9 °F 33.5 °F 18.0 °F 45% 30.00 in 10.0 mi ENE 5.8 mph - N/A   Clear
2:53 AM 36.0 °F 33.3 °F 18.0 °F 48% 30.00 in 10.0 mi NE 3.5 mph - N/A   Clear
3:53 AM 36.0 °F 32.1 °F 17.1 °F 46% 30.02 in 10.0 mi NE 4.6 mph - N/A   Clear
4:53 AM 36.0 °F 31.1 °F 18.0 °F 48% 30.05 in 10.0 mi ENE 5.8 mph - N/A   Clear
5:53 AM 36.0 °F 32.1 °F 17.1 °F 46% 30.06 in 10.0 mi ENE 4.6 mph - N/A   Clear
6:53 AM 36.0 °F 33.3 °F 17.1 °F 46% 30.09 in 10.0 mi East 3.5 mph - N/A   Mostly Cloudy
7:53 AM 36.0 °F 31.1 °F 16.0 °F 44% 30.08 in 10.0 mi East 5.8 mph - N/A   Overcast
8:53 AM 37.0 °F 32.4 °F 15.1 °F 41% 30.11 in 10.0 mi East 5.8 mph - N/A   Overcast
9:53 AM 39.9 °F 35.1 °F 16.0 °F 38% 30.10 in 10.0 mi ENE 6.9 mph - N/A   Partly Cloudy
10:53 AM 44.1 °F - 18.0 °F 35% 30.10 in 10.0 mi Calm Calm - N/A   Overcast
11:53 AM 46.0 °F 43.9 °F 17.1 °F 31% 30.10 in 10.0 mi East 4.6 mph - N/A   Mostly Cloudy
12:53 PM 48.0 °F - 19.0 °F 32% 30.09 in 10.0 mi Variable 3.5 mph - N/A   Overcast
1:53 PM 48.0 °F - 18.0 °F 30% 30.09 in 10.0 mi WSW 4.6 mph - N/A   Overcast
2:53 PM 50.0 °F - 18.0 °F 28% 30.05 in 10.0 mi Variable 3.5 mph - N/A   Mostly Cloudy
4:53 PM 51.1 °F - 21.0 °F 31% 30.04 in 10.0 mi West 3.5 mph - N/A   Scattered Clouds
5:53 PM 51.1 °F - 23.0 °F 33% 30.03 in 10.0 mi SW 5.8 mph - N/A   Overcast
6:53 PM 50.0 °F - 23.0 °F 35% 30.04 in 10.0 mi WSW 5.8 mph - N/A   Mostly Cloudy
7:53 PM 48.9 °F - 26.1 °F 41% 30.05 in 10.0 mi SW 3.5 mph - N/A   Scattered Clouds
8:53 PM 48.0 °F - 27.0 °F 44% 30.05 in 10.0 mi Calm Calm - N/A   Overcast
9:53 PM 45.0 °F - 33.1 °F 63% 30.06 in 10.0 mi Calm Calm - N/A   Mostly Cloudy
10:53 PM 44.1 °F - 32.0 °F 63% 30.06 in 10.0 mi Calm Calm - N/A   Partly Cloudy
11:53 PM 41.0 °F - 33.1 °F 73% 30.06 in 10.0 mi Calm Calm - N/A   Clear